Weather History for Cloquet, MN

Change the Weather History Date:

Saturday, February 23, 2013

  Actual Average Record
Temperature  
Mean Temperature 26 °F -  
Max Temperature 30 °F 26 °F 44 °F (2002)
Min Temperature 21 °F 11 °F -11 °F (2009)
Degree Days  
Heating Degree Days 40    
Moisture  
Dew Point 18 °F    
Average Humidity 74    
Maximum Humidity 93    
Minimum Humidity 60    
Precipitation  
Precipitation 0.00 in - - ()
Sea Level Pressure  
Sea Level Pressure 29.80 in    
Wind  
Wind Speed 7 mph (NW)    
Max Wind Speed 10 mph    
Max Gust Speed -    
Visibility 10 miles    
Events Snow    
Averages and records for this station are not official NWS values.
T = Trace of Precipitation, MM = Missing Value Source: NWS Daily Summary

Daily Weather History Graph

Daily Weather History Graph

Search for Another Location

Airport:

Trip Planner

Search our weather history database for the weather conditions in past years. The results will help you decide how hot, cold, wet, or windy it might be!

Date:

Astronomy

Feb. 23, 2013 Rise Set
Actual Time 6:59 AM CST 5:47 PM CST
Civil Twilight 6:29 AM CST 6:18 PM CST
Nautical Twilight 5:54 AM CST 6:53 PM CST
Astronomical Twilight 5:19 AM CST 7:28 PM CST
Moon 3:54 PM CST (2/23) 5:27 AM CST (2/23)
Length of Visible Light 11h 48m
Length of Day
10h 47m
Waxing Gibbous, 95% of the Moon is Illuminated
Feb 23
Waxing Gibbous
Feb 25
Full
Mar 4
Last Quarter
Mar 11
New
Mar 19
First Quarter

Hourly Weather History & Observations

Time (CST) Temp. Windchill Dew Point Humidity Pressure Visibility Wind Dir Wind Speed Gust Speed Precip Events Conditions
12:16 AM 24.8 °F 16.9 °F 19.4 °F 80% 29.80 in 10.0 mi NNW 6.9 mph - N/A   Overcast
12:36 AM 23.0 °F 13.1 °F 19.4 °F 86% 29.80 in 10.0 mi NNW 9.2 mph - N/A   Overcast
1:16 AM 23.0 °F 13.1 °F 19.4 °F 86% 29.79 in 10.0 mi NNW 9.2 mph - N/A   Overcast
1:36 AM 21.2 °F 12.6 °F 19.4 °F 93% 29.79 in 10.0 mi North 6.9 mph - N/A Snow Light Snow
1:55 AM 21.2 °F 11.7 °F 17.6 °F 86% 29.78 in 10.0 mi NNW 8.1 mph - N/A Snow Light Snow
2:16 AM 21.2 °F 13.6 °F 17.6 °F 86% 29.78 in 10.0 mi North 5.8 mph - N/A Snow Light Snow
2:36 AM 21.2 °F 12.6 °F 17.6 °F 86% 29.78 in 10.0 mi NNW 6.9 mph - N/A Snow Light Snow
2:55 AM 21.2 °F 12.6 °F 17.6 °F 86% 29.77 in 10.0 mi NW 6.9 mph - N/A   Overcast
3:16 AM 21.2 °F 12.6 °F 17.6 °F 86% 29.77 in 10.0 mi NNW 6.9 mph - N/A   Overcast
3:36 AM 21.2 °F 14.9 °F 17.6 °F 86% 29.77 in 10.0 mi WNW 4.6 mph - N/A   Overcast
3:56 AM 21.2 °F 13.6 °F 17.6 °F 86% 29.77 in 10.0 mi NW 5.8 mph - N/A   Overcast
4:15 AM 21.2 °F 13.6 °F 17.6 °F 86% 29.77 in 10.0 mi NW 5.8 mph - N/A   Overcast
4:36 AM 21.2 °F 12.6 °F 17.6 °F 86% 29.77 in 10.0 mi NNW 6.9 mph - N/A   Overcast
4:56 AM 21.2 °F 11.7 °F 17.6 °F 86% 29.77 in 10.0 mi NNW 8.1 mph - N/A   Overcast
5:15 AM 21.2 °F 12.6 °F 17.6 °F 86% 29.77 in 10.0 mi NNW 6.9 mph - N/A   Overcast
5:36 AM 21.2 °F 12.6 °F 17.6 °F 86% 29.77 in 10.0 mi NNW 6.9 mph - N/A   Overcast
5:55 AM 21.2 °F 11.7 °F 17.6 °F 86% 29.78 in 10.0 mi NNW 8.1 mph - N/A   Overcast
6:16 AM 21.2 °F 12.6 °F 17.6 °F 86% 29.78 in 10.0 mi NNW 6.9 mph - N/A   Overcast
6:36 AM 21.2 °F 12.6 °F 17.6 °F 86% 29.78 in 10.0 mi NNW 6.9 mph - N/A   Overcast
6:56 AM 21.2 °F 12.6 °F 17.6 °F 86% 29.78 in 10.0 mi NNW 6.9 mph - N/A   Overcast
7:16 AM 21.2 °F 12.6 °F 17.6 °F 86% 29.78 in 10.0 mi NNW 6.9 mph - N/A   Overcast
7:36 AM 21.2 °F 14.9 °F 17.6 °F 86% 29.78 in 10.0 mi NNW 4.6 mph - N/A   Overcast
7:56 AM 21.2 °F 13.6 °F 17.6 °F 86% 29.78 in 10.0 mi NNW 5.8 mph - N/A   Overcast
8:16 AM 21.2 °F - 17.6 °F 86% 29.78 in 10.0 mi Calm Calm - N/A   Overcast
8:36 AM 21.2 °F 14.9 °F 17.6 °F 86% 29.78 in 10.0 mi NNW 4.6 mph - N/A   Overcast
8:56 AM 23.0 °F 17.0 °F 19.4 °F 86% 29.78 in 10.0 mi NW 4.6 mph - N/A   Overcast
9:16 AM 24.8 °F 20.5 °F 19.4 °F 80% 29.79 in 10.0 mi NNW 3.5 mph - N/A   Overcast
10:36 AM 26.6 °F 22.6 °F 19.4 °F 74% 29.80 in 10.0 mi WNW 3.5 mph - N/A   Overcast
10:56 AM 26.6 °F 21.2 °F 19.4 °F 74% 29.79 in 10.0 mi WNW 4.6 mph - N/A   Overcast
11:15 AM 28.4 °F 23.3 °F 19.4 °F 69% 29.80 in 10.0 mi West 4.6 mph - N/A   Overcast
11:36 AM 28.4 °F 23.3 °F 19.4 °F 69% 29.79 in 10.0 mi NW 4.6 mph - N/A   Overcast
11:56 AM 30.2 °F - 19.4 °F 64% 29.79 in 10.0 mi Calm Calm - N/A   Overcast
12:15 PM 30.2 °F 23.4 °F 19.4 °F 64% 29.79 in 10.0 mi West 6.9 mph - N/A   Overcast
12:36 PM 30.2 °F 21.9 °F 19.4 °F 64% 29.79 in 10.0 mi West 9.2 mph - N/A   Overcast
12:56 PM 28.4 °F 19.7 °F 19.4 °F 69% 29.79 in 10.0 mi West 9.2 mph - N/A   Overcast
1:15 PM 28.4 °F 20.4 °F 19.4 °F 69% 29.79 in 10.0 mi West 8.1 mph - N/A   Overcast
1:36 PM 30.2 °F 22.6 °F 17.6 °F 60% 29.78 in 10.0 mi WNW 8.1 mph - N/A   Overcast
1:55 PM 30.2 °F 24.3 °F 17.6 °F 60% 29.79 in 10.0 mi NW 5.8 mph - N/A   Overcast
2:16 PM 30.2 °F 23.4 °F 17.6 °F 60% 29.78 in 10.0 mi West 6.9 mph - N/A   Overcast
2:35 PM 30.2 °F 23.4 °F 17.6 °F 60% 29.78 in 10.0 mi WNW 6.9 mph - N/A   Overcast
2:56 PM 30.2 °F 22.6 °F 17.6 °F 60% 29.79 in 10.0 mi NW 8.1 mph - N/A   Overcast
3:16 PM 30.2 °F 23.4 °F 17.6 °F 60% 29.78 in 10.0 mi WNW 6.9 mph - N/A   Overcast
3:35 PM 30.2 °F 21.3 °F 17.6 °F 60% 29.78 in 10.0 mi WNW 10.4 mph - N/A   Overcast
3:56 PM 30.2 °F 23.4 °F 17.6 °F 60% 29.78 in 10.0 mi WNW 6.9 mph - N/A   Overcast
4:16 PM 30.2 °F 22.6 °F 17.6 °F 60% 29.79 in 10.0 mi WNW 8.1 mph - N/A   Overcast
4:36 PM 30.2 °F 24.3 °F 17.6 °F 60% 29.79 in 10.0 mi NW 5.8 mph - N/A   Overcast
4:56 PM 30.2 °F 22.6 °F 17.6 °F 60% 29.80 in 10.0 mi NW 8.1 mph - N/A   Overcast
5:16 PM 30.2 °F 23.4 °F 17.6 °F 60% 29.81 in 10.0 mi NW 6.9 mph - N/A   Overcast
5:36 PM 30.2 °F 25.4 °F 17.6 °F 60% 29.81 in 10.0 mi WNW 4.6 mph - N/A   Overcast
5:56 PM 30.2 °F 26.7 °F 17.6 °F 60% 29.82 in 10.0 mi West 3.5 mph - N/A   Overcast
6:16 PM 30.2 °F 26.7 °F 17.6 °F 60% 29.82 in 10.0 mi West 3.5 mph - N/A   Overcast
6:36 PM 30.2 °F 25.4 °F 17.6 °F 60% 29.82 in 10.0 mi West 4.6 mph - N/A   Overcast
6:56 PM 28.4 °F 23.3 °F 17.6 °F 64% 29.82 in 10.0 mi West 4.6 mph - N/A   Overcast
7:16 PM 28.4 °F 24.6 °F 17.6 °F 64% 29.83 in 10.0 mi West 3.5 mph - N/A   Overcast
7:36 PM 28.4 °F 22.2 °F 17.6 °F 64% 29.83 in 10.0 mi West 5.8 mph - N/A   Overcast
7:56 PM 28.4 °F 22.2 °F 17.6 °F 64% 29.83 in 10.0 mi West 5.8 mph - N/A   Overcast
8:16 PM 26.6 °F 19.1 °F 17.6 °F 69% 29.84 in 10.0 mi West 6.9 mph - N/A   Overcast
8:36 PM 26.6 °F 22.6 °F 17.6 °F 69% 29.84 in 10.0 mi West 3.5 mph - N/A   Overcast
8:56 PM 26.6 °F 19.1 °F 19.4 °F 74% 29.85 in 10.0 mi West 6.9 mph - N/A   Overcast
9:16 PM 26.6 °F 18.2 °F 17.6 °F 69% 29.85 in 10.0 mi West 8.1 mph - N/A   Overcast
9:36 PM 26.6 °F 20.0 °F 17.6 °F 69% 29.85 in 10.0 mi West 5.8 mph - N/A   Overcast
9:56 PM 26.6 °F 18.2 °F 17.6 °F 69% 29.85 in 10.0 mi West 8.1 mph - N/A   Mostly Cloudy
10:16 PM 24.8 °F 16.1 °F 17.6 °F 74% 29.86 in 10.0 mi West 8.1 mph - N/A   Scattered Clouds
10:36 PM 24.8 °F 16.1 °F 17.6 °F 74% 29.87 in 10.0 mi WNW 8.1 mph - N/A   Overcast
10:56 PM 24.8 °F 16.1 °F 17.6 °F 74% 29.87 in 10.0 mi WNW 8.1 mph - N/A   Overcast
11:15 PM 24.8 °F 16.1 °F 17.6 °F 74% 29.88 in 10.0 mi WNW 8.1 mph - N/A   Mostly Cloudy
11:36 PM 23.0 °F 13.9 °F 17.6 °F 80% 29.88 in 10.0 mi WNW 8.1 mph - N/A   Overcast
11:56 PM 23.0 °F 13.9 °F 17.6 °F 80% 29.89 in 10.0 mi NW 8.1 mph - N/A   Mostly Cloudy